Flag for Russia Weather past 2 weeks in Sochi, Russia

Now
45 °F

Partly cloudy.


Feels Like: 43 °F
Forecast: 41 / 55 °F
Wind: 3 mph from East

Location: Adler

Current Time: Dec 21, 2014 at 4:33:45 AM

Latest Report: Dec 21, 2014 at 4:00 AM


Visibility: N/A

Pressure: 30.09 "Hg

Humidity: 87%

Dew point: 41 °F

Location of SochiLocation

Historic Weather in Sochi — Graph

°F

Sochi temperature yesterday

Maximum temperature yesterday: 57 °F (at 3:00 PM)
Minimum temperature yesterday: 45 °F (at 8:30 AM)
Average temperature yesterday: 49 °F

Past Weeks' High & Low Weather Summary

 TemperatureHumidityPressure
High72 °F (Dec 9, 4:00 PM)94% (Dec 11, 10:30 AM)30.33 "Hg (Dec 11, 10:30 AM)
Low39 °F (Dec 7, 7:30 AM)25% (Dec 9, 4:00 PM)29.92 "Hg (Dec 9, 9:00 PM)
Average52 °F72%30.14 "Hg
* Reported Dec 6 3:00 AM — Dec 21 3:30 AM, Sochi, Weather by CustomWeather, © 2014

Note: Actual official high and low records may vary slightly from our data, if they occured in-between our weather recording intervals... More about our weather records

Advertising

Sochi weather history for previous 24 hours

 ConditionsComfort  
Time TempWeatherWind HumidityBarometerVisibility
3:30 AM
Dec 21
45 °FPassing clouds.8 mph87%30.09 "HgN/A
3:00 AM46 °FPartly cloudy.8 mph82%30.09 "HgN/A
2:30 AM45 °FPartly cloudy.10 mph87%30.12 "HgN/A
2:00 AM46 °FMostly cloudy.13 mph82%30.12 "HgN/A
1:30 AM46 °FPassing clouds.6 mph87%30.12 "HgN/A
1:00 AM45 °FPassing clouds.3 mph87%30.12 "HgN/A
12:30 AM46 °FPassing clouds.8 mph87%30.12 "HgN/A
12:00 AM46 °FMostly cloudy.8 mph87%30.12 "HgN/A
11:30 PM
Dec 20
46 °FMostly cloudy.3 mph87%30.12 "HgN/A
11:00 PM46 °FOvercast.3 mph87%30.12 "HgN/A
10:30 PM46 °FOvercast.3 mph87%30.12 "HgN/A
10:00 PM45 °FMostly cloudy.6 mph93%30.12 "HgN/A
9:30 PM46 °FMostly cloudy.3 mph87%30.12 "Hg6 mi
9:00 PM46 °FOvercast.6 mph87%30.12 "Hg6 mi
8:30 PM46 °FOvercast.6 mph87%30.12 "Hg6 mi
8:00 PM46 °FOvercast.3 mph87%30.12 "Hg5 mi
7:30 PM46 °FOvercast.1 mph87%30.12 "Hg6 mi
7:00 PM46 °FMostly cloudy.3 mph93%30.12 "Hg5 mi
6:30 PM46 °FMostly cloudy.3 mph87%30.12 "Hg4 mi
6:00 PM46 °FMostly cloudy.6 mph87%30.12 "Hg6 mi
5:30 PM48 °FMore clouds than sun.1 mph82%30.12 "HgN/A
5:00 PM52 °FPartly sunny.No wind72%30.12 "HgN/A
4:30 PM52 °FPartly sunny.3 mph72%30.12 "HgN/A
4:00 PM54 °FPartly sunny.3 mph72%30.15 "HgN/A
3:30 PM55 °FPartly sunny.3 mph67%30.15 "HgN/A
3:00 PM57 °FPartly sunny.3 mph59%30.15 "HgN/A
2:30 PM55 °FPartly sunny.3 mph67%30.15 "Hg6 mi
2:00 PM55 °FPartly sunny.3 mph67%30.15 "HgN/A
1:30 PM55 °FPartly sunny.6 mph67%30.15 "HgN/A
1:00 PM55 °FPartly sunny.3 mph67%30.15 "HgN/A
12:30 PM55 °FPartly sunny.3 mph67%30.18 "HgN/A
12:00 PM54 °FBroken clouds.3 mph72%30.18 "HgN/A
11:30 AM54 °FBroken clouds.3 mph72%30.21 "HgN/A
11:00 AM54 °FBroken clouds.6 mph72%30.21 "HgN/A
10:30 AM52 °FPartly sunny.3 mph82%30.21 "HgN/A
10:00 AM50 °FPassing clouds.No wind82%30.21 "HgN/A
9:30 AM46 °FPassing clouds.3 mph93%30.21 "HgN/A
9:00 AM45 °FPassing clouds.1 mph93%30.21 "HgN/A
8:30 AM45 °FFog.No wind93%30.21 "HgN/A
8:00 AM46 °FFog.No wind87%30.21 "HgN/A
7:30 AM46 °FFog.No wind93%30.21 "Hg4 mi
7:00 AM46 °FMostly cloudy.No wind93%30.21 "Hg6 mi
6:30 AM48 °FMostly cloudy.No wind87%30.21 "HgN/A
6:00 AM48 °FMostly cloudy.No wind87%30.21 "Hg6 mi
5:30 AM48 °FMostly cloudy.3 mph87%30.21 "HgN/A
5:00 AM48 °FMostly cloudy.No wind87%30.21 "Hg4 mi
4:54 AM48 °FFog.No wind87%30.21 "Hg2 mi
4:30 AM48 °FMostly cloudy.No wind87%30.21 "Hg4 mi
4:00 AM48 °FPartly cloudy.No wind87%30.21 "Hg6 mi
Weather by CustomWeather, © 2014

See weather overviewHow to use our weather pages